Regional Weather Roundup
Issued by NWS

Home | Current Version | Previous Version | Graphics & Text | Print | Product List | Glossary On
Versions: 1 2 3 4 5 6 7 8 9 10 11 12 13 14 15 16 17 18 19 20 21 22 23 24 25 26 27 28 29 30 31 32 33 34 35 36 37 38 39 40 41 42 43 44 45 46 47 48 49 50
000
ASUS43 KBIS 020310
RWRND

NORTH DAKOTA REGIONAL WEATHER ROUNDUP
NATIONAL WEATHER SERVICE BISMARCK ND
1000 PM CDT WED JUL 01 2015

NOTE: "FAIR" INDICATES FEW OR NO CLOUDS BELOW 12,000 FEET WITH NO
SIGNIFICANT WEATHER AND/OR OBSTRUCTIONS TO VISIBILITY.


NDZ001>003-009>011-017-020400-
NORTHWEST NORTH DAKOTA

CITY           SKY/WX    TMP DP  RH WIND       PRES   REMARKS
WILLISTON      CLOUDY    72  58  61 CALM      29.97R HAZE
MINOT          MOCLDY    67  63  87 CALM      29.94R FOG
MINOT AFB      MOCLDY    68  68 100 E3        29.94R
$$

NDZ018>021-031>035-040>046-020400-
SOUTHWEST NORTH DAKOTA

CITY           SKY/WX    TMP DP  RH WIND       PRES   REMARKS
BISMARCK       MOCLDY    69  65  86 SE3       29.95R
DICKINSON      CLOUDY    68  62  81 CALM      29.97R
GARRISON         N/A     70  65  84 E3        29.95R
HETTINGER ARPT MOCLDY    68  62  81 NW3       30.03R
$$

NDZ004>008-012>016-024-026-027-054-020400-
NORTHEAST NORTH DAKOTA

CITY           SKY/WX    TMP DP  RH WIND       PRES   REMARKS
GRAND FORKS    PTCLDY    67  62  84 S6        29.93S
GRND FRKS AFB  PTCLDY    67  62  84 S6        29.95R
DEVILS LAKE    MOCLDY    70  61  73 SE7       29.93S
$$

NDZ022-023-025-028>030-036>039-047>053-020400-
SOUTHEAST NORTH DAKOTA

CITY           SKY/WX    TMP DP  RH WIND       PRES   REMARKS
FARGO          CLEAR     68  56  65 S7        29.97R
JAMESTOWN      PTCLDY    68  63  84 SE6       29.95S
$$




USA.gov is the U.S. government's official web portal to all federal, state and local government web resources and services.